20050116,000009,1038988,34.272993,-120.024428,15.567,32.785,3.589,7.848
20050116,000040,1039019,34.273073,-120.024342,15.591,32.828,3.555,7.858
20050116,000110,1039049,34.273132,-120.024248,15.569,32.862,3.589,7.901
20050116,000140,1039079,34.273198,-120.024168,15.541,32.871,3.589,7.772
20050116,000210,1039108,34.273205,-120.024082,15.512,32.881,3.658,7.815
20050116,000240,1039138,34.273160,-120.024017,15.417,32.923,3.711,7.808
20050116,000310,1039168,34.273090,-120.023973,15.377,32.892,3.867,7.986
20050116,000340,1039199,34.273013,-120.023947,15.346,32.884,3.815,7.743
20050116,000410,1039229,34.272965,-120.023935,15.480,32.782,3.745,7.499
20050116,000440,1039258,34.272925,-120.023905,15.580,32.800,3.641,7.241
20050116,000509,1039288,34.272898,-120.023883,15.611,32.823,3.641,7.318
20050116,000540,1039318,34.272870,-120.023848,15.649,32.828,3.780,7.821
20050116,000609,1039347,34.272847,-120.023812,15.662,32.849,3.745,7.970
20050116,000640,1039379,34.272822,-120.023777,15.642,32.865,3.780,8.197
20050116,000710,1039409,34.272778,-120.023743,15.654,32.856,3.727,8.177
20050116,000739,1039438,34.272737,-120.023713,15.642,32.865,3.727,8.237
20050116,000810,1039468,34.272703,-120.023673,15.666,32.851,3.938,8.657
20050116,000839,1039498,34.272667,-120.023623,15.679,32.850,3.885,8.436
20050116,000910,1039529,34.272627,-120.023580,15.685,32.856,3.711,7.981
20050116,000940,1039559,34.272593,-120.023535,15.672,32.871,3.762,8.037
20050116,001010,1039589,34.272565,-120.023487,15.666,32.866,3.885,8.254
20050116,001040,1039618,34.272540,-120.023432,15.693,32.850,3.903,8.315
20050116,001109,1039648,34.272530,-120.023398,15.713,32.845,4.008,8.528
20050116,001140,1039678,34.272513,-120.023357,15.726,32.856,4.080,8.607
20050116,001210,1039709,34.272478,-120.023290,15.702,32.870,3.991,8.312
20050116,001240,1039739,34.272458,-120.023218,15.710,32.860,4.080,8.403
20050116,001309,1039767,34.272433,-120.023170,15.701,32.868,4.044,8.272
20050116,001340,1039798,34.272390,-120.023123,15.691,32.867,4.151,8.456
20050116,001410,1039828,34.272340,-120.023070,15.713,32.851,4.008,8.207
20050116,001440,1039859,34.272300,-120.023032,15.733,32.849,4.134,8.603
20050116,001511,1039889,34.272253,-120.022997,15.742,32.853,4.026,8.532
20050116,001540,1039919,34.272200,-120.022955,15.751,32.857,4.116,8.815
20050116,001610,1039948,34.272167,-120.022910,15.756,32.861,4.044,8.759
20050116,001640,1039978,34.272142,-120.022852,15.744,32.873,4.008,8.835
20050116,001710,1040008,34.272122,-120.022782,15.723,32.877,3.938,8.804
20050116,001740,1040039,34.272107,-120.022713,15.710,32.877,3.867,8.705
20050116,001810,1040069,34.272070,-120.022642,15.698,32.874,4.008,9.036
20050116,001841,1040099,34.272012,-120.022570,15.686,32.874,3.867,8.670
20050116,001910,1040128,34.271948,-120.022513,15.680,32.870,3.885,8.566
20050116,001940,1040158,34.271918,-120.022462,15.676,32.869,3.885,8.374
20050116,002010,1040188,34.271893,-120.022382,15.672,32.868,3.833,8.142
20050116,002041,1040219,34.271877,-120.022302,15.668,32.868,3.956,8.391
20050116,002111,1040249,34.271860,-120.022218,15.665,32.867,4.008,8.620
20050116,002140,1040278,34.271862,-120.022132,15.666,32.865,3.885,8.505
20050116,002211,1040310,34.271863,-120.022025,15.660,32.868,3.920,8.659
20050116,002241,1040340,34.271867,-120.021930,15.678,32.856,3.903,8.593
20050116,002311,1040369,34.271882,-120.021825,15.691,32.858,4.026,8.792
20050116,002340,1040399,34.271890,-120.021707,15.691,32.864,3.991,8.664
20050116,002411,1040429,34.271887,-120.021593,15.698,32.861,3.903,8.420
20050116,002441,1040460,34.271847,-120.021483,15.698,32.866,3.938,8.412
20050116,002511,1040490,34.271782,-120.021380,15.703,32.862,3.867,8.163
20050116,002540,1040518,34.271747,-120.021285,15.712,32.863,3.974,8.274
20050116,002611,1040549,34.271727,-120.021187,15.703,32.869,3.956,8.139
20050116,002641,1040579,34.271703,-120.021098,15.713,32.863,3.885,7.881
20050116,002711,1040610,34.271672,-120.020995,15.725,32.862,3.956,7.889
20050116,002742,1040640,34.271650,-120.020888,15.715,32.870,4.062,7.960
20050116,002811,1040670,34.271628,-120.020778,15.720,32.865,3.991,7.694
20050116,002841,1040699,34.271612,-120.020662,15.722,32.866,4.008,7.642
20050116,002911,1040729,34.271595,-120.020535,15.720,32.868,3.885,7.375
20050116,002941,1040759,34.271583,-120.020427,15.710,32.873,3.974,7.552
20050116,003011,1040790,34.271553,-120.020298,15.696,32.878,4.008,7.665
20050116,003041,1040820,34.271510,-120.020192,15.684,32.878,4.026,7.773
20050116,003111,1040850,34.271447,-120.020102,15.668,32.879,3.938,7.608
20050116,003141,1040879,34.271350,-120.020040,15.643,32.885,3.956,7.610
20050116,003211,1040909,34.271252,-120.020028,15.640,32.876,4.080,7.790
20050116,003242,1040940,34.271152,-120.020028,15.640,32.870,3.938,7.481
20050116,003312,1040970,34.271050,-120.020050,15.640,32.869,4.008,7.605
20050116,003342,1041000,34.270947,-120.020103,15.651,32.864,3.938,7.459
20050116,003412,1041031,34.270827,-120.020140,15.620,32.886,3.991,7.541
20050116,003441,1041059,34.270715,-120.020178,15.615,32.874,4.062,7.589
20050116,003512,1041091,34.270607,-120.020190,15.620,32.868,4.044,7.383
20050116,003541,1041120,34.270520,-120.020185,15.598,32.881,3.991,7.132
20050116,003612,1041150,34.270445,-120.020140,15.570,32.890,3.956,6.967
20050116,003642,1041180,34.270393,-120.020085,15.542,32.886,3.991,6.989
20050116,003711,1041209,34.270338,-120.020023,15.535,32.877,4.008,6.992
20050116,003741,1041239,34.270277,-120.019963,15.524,32.875,3.991,6.923
20050116,003811,1041269,34.270217,-120.019908,15.514,32.874,4.044,6.961
20050116,003842,1041300,34.270153,-120.019845,15.508,32.869,3.956,6.754
20050116,003912,1041330,34.270093,-120.019785,15.499,32.873,4.044,6.838
20050116,003942,1041361,34.270043,-120.019723,15.473,32.877,4.062,6.808
20050116,004011,1041389,34.269997,-120.019643,15.465,32.878,4.044,6.737
20050116,004042,1041421,34.269962,-120.019555,15.448,32.876,4.116,6.822
20050116,004112,1041450,34.269960,-120.019472,15.439,32.873,3.956,6.538
20050116,004142,1041480,34.269980,-120.019348,15.420,32.874,3.956,6.521
20050116,004212,1041510,34.269968,-120.019253,15.402,32.877,3.956,6.508
20050116,004242,1041541,34.269902,-120.019178,15.395,32.872,3.920,6.439
20050116,004312,1041571,34.269858,-120.019087,15.383,32.875,3.903,6.403
20050116,004342,1041601,34.269867,-120.018998,15.377,32.870,3.903,6.399
20050116,004413,1041632,34.269825,-120.018930,15.380,32.864,3.938,6.457
20050116,004442,1041660,34.269725,-120.018965,15.378,32.865,3.938,6.458
20050116,004513,1041691,34.269630,-120.019080,15.376,32.865,3.956,6.480
20050116,004543,1041721,34.269560,-120.019270,15.377,32.862,3.938,6.447
20050116,004612,1041751,34.269522,-120.019463,15.382,32.862,3.991,6.521
20050116,004643,1041782,34.269503,-120.019620,15.371,32.867,3.885,6.338
20050116,004713,1041812,34.269488,-120.019783,15.385,32.855,3.885,6.327
20050116,004742,1041840,34.269460,-120.019970,15.387,32.860,3.938,6.402
20050116,004813,1041871,34.269432,-120.020162,15.391,32.852,3.938,6.395
20050116,004844,1041903,34.269408,-120.020362,15.393,32.856,3.991,6.479
20050116,004913,1041931,34.269413,-120.020553,15.400,32.853,4.008,6.513
20050116,004944,1041962,34.269427,-120.020748,15.416,32.846,4.026,6.558
20050116,005014,1041992,34.269433,-120.020935,15.431,32.850,3.956,6.465
20050116,005043,1042021,34.269413,-120.021127,15.452,32.847,3.885,6.360
20050116,005113,1042051,34.269413,-120.021308,15.459,32.856,3.850,6.303
20050116,005143,1042081,34.269393,-120.021453,15.445,32.868,3.885,6.345
20050116,005214,1042112,34.269377,-120.021623,15.437,32.873,3.833,6.241
20050116,005244,1042142,34.269378,-120.021823,15.430,32.873,3.815,6.197
20050116,005314,1042172,34.269380,-120.022062,15.425,32.874,3.850,6.244
20050116,005343,1042201,34.269377,-120.022302,15.399,32.887,3.867,6.264
20050116,005414,1042233,34.269360,-120.022553,15.380,32.884,3.762,6.091
20050116,005444,1042263,34.269357,-120.022787,15.364,32.882,3.727,6.024
20050116,005514,1042292,34.269365,-120.023027,15.376,32.865,3.676,5.924
20050116,005544,1042322,34.269360,-120.023217,15.381,32.862,3.658,5.874
20050116,005614,1042352,34.269353,-120.023365,15.342,32.886,3.676,5.884
20050116,005644,1042383,34.269330,-120.023480,15.321,32.877,3.711,5.926
20050116,005714,1042413,34.269303,-120.023568,15.303,32.877,3.693,5.889
20050116,005744,1042442,34.269260,-120.023693,15.306,32.860,3.745,5.961
20050116,005814,1042472,34.269203,-120.023855,15.331,32.848,3.938,6.255
20050116,005844,1042502,34.269142,-120.024062,15.343,32.849,4.026,6.385
20050116,005914,1042533,34.269085,-120.024282,15.361,32.844,4.116,6.518
20050116,005945,1042563,34.269027,-120.024465,15.371,32.847,4.134,6.539
20050116,010014,1042593,34.268965,-120.024590,15.354,32.862,4.151,6.559
20050116,010045,1042624,34.268910,-120.024715,15.330,32.865,4.098,6.471
20050116,010114,1042652,34.268855,-120.024893,15.316,32.866,4.062,6.410
20050116,010145,1042683,34.268785,-120.025178,15.289,32.867,4.116,6.489
20050116,010215,1042713,34.268692,-120.025538,15.294,32.858,3.991,6.290
20050116,010245,1042743,34.268593,-120.025948,15.265,32.865,3.956,6.229
20050116,010315,1042773,34.268497,-120.026382,15.271,32.850,3.903,6.142
20050116,010344,1042802,34.268398,-120.026772,15.257,32.859,3.850,6.057
20050116,010415,1042834,34.268325,-120.027123,15.283,32.835,3.780,5.945
20050116,010445,1042863,34.268240,-120.027448,15.303,32.840,3.727,5.860
20050116,010515,1042893,34.268155,-120.027792,15.311,32.843,3.885,6.097
20050116,010545,1042923,34.268068,-120.028152,15.278,32.867,3.797,5.958
20050116,010615,1042954,34.267983,-120.028520,15.297,32.841,3.623,5.688
20050116,010645,1042984,34.267895,-120.028892,15.311,32.841,3.572,5.606
20050116,010715,1043014,34.267812,-120.029263,15.288,32.859,3.333,5.240
20050116,010745,1043043,34.267717,-120.029635,15.254,32.867,3.283,5.161
20050116,010815,1043073,34.267637,-120.030012,15.237,32.857,3.300,5.183
20050116,010844,1043103,34.267557,-120.030350,15.239,32.847,3.384,5.307
20050116,010915,1043134,34.267488,-120.030627,15.234,32.850,3.623,5.666
20050116,010945,1043164,34.267445,-120.030860,15.214,32.857,3.641,5.689
20050116,011015,1043193,34.267407,-120.031055,15.209,32.852,3.676,5.739
20050116,011045,1043223,34.267362,-120.031225,15.210,32.848,3.572,5.580
20050116,011115,1043253,34.267307,-120.031380,15.207,32.847,3.283,5.140
20050116,011145,1043284,34.267238,-120.031523,15.209,32.844,3.367,5.264
20050116,011215,1043314,34.267178,-120.031672,15.236,32.826,3.199,5.010
20050116,011245,1043344,34.267127,-120.031837,15.268,32.822,3.166,4.960
20050116,011315,1043373,34.267093,-120.032013,15.277,32.830,3.199,5.006
20050116,011345,1043403,34.267047,-120.032215,15.270,32.846,3.149,4.930
20050116,011415,1043433,34.266977,-120.032442,15.274,32.839,3.000,4.708
20050116,011445,1043464,34.266907,-120.032675,15.263,32.847,3.000,4.706
20050116,011515,1043494,34.266850,-120.032907,15.267,32.845,2.984,4.680
20050116,011545,1043524,34.266798,-120.033122,15.270,32.841,2.984,4.679
20050116,011615,1043553,34.266750,-120.033327,15.285,32.837,2.918,4.580
20050116,011646,1043585,34.266703,-120.033505,15.293,32.837,2.951,4.628
20050116,011716,1043614,34.266648,-120.033687,15.294,32.840,3.000,4.700
20050116,011745,1043644,34.266585,-120.033873,15.296,32.840,3.017,4.724
20050116,011815,1043674,34.266537,-120.034067,15.292,32.843,3.082,4.821
20050116,011845,1043703,34.266492,-120.034257,15.285,32.842,3.066,4.795
20050116,011916,1043735,34.266442,-120.034445,15.289,32.839,3.033,4.745
20050116,011946,1043765,34.266383,-120.034638,15.293,32.838,3.099,4.843
20050116,012016,1043794,34.266327,-120.034837,15.319,32.827,3.017,4.720
20050116,012045,1043824,34.266268,-120.035045,15.304,32.845,2.967,4.646
20050116,012116,1043854,34.266200,-120.035280,15.309,32.840,3.066,4.791
20050116,012146,1043885,34.266153,-120.035498,15.315,32.838,3.033,4.741
20050116,012216,1043915,34.266110,-120.035718,15.304,32.849,3.066,4.790
20050116,012246,1043944,34.266073,-120.035922,15.288,32.852,3.066,4.790
20050116,012316,1043974,34.266017,-120.036120,15.275,32.850,3.116,4.863
20050116,012346,1044004,34.265958,-120.036322,15.282,32.838,3.066,4.788
20050116,012416,1044034,34.265913,-120.036532,15.281,32.843,3.033,4.738
20050116,012447,1044065,34.265870,-120.036755,15.275,32.843,3.182,4.959
20050116,012516,1044095,34.265822,-120.036995,15.277,32.843,3.132,4.886
20050116,012547,1044126,34.265762,-120.037250,15.270,32.844,3.149,4.910
20050116,012616,1044154,34.265712,-120.037455,15.263,32.849,3.049,4.761
20050116,012647,1044186,34.265690,-120.037600,15.264,32.843,3.082,4.810
20050116,012716,1044215,34.265662,-120.037752,15.248,32.850,3.033,4.736
20050116,012747,1044245,34.265620,-120.037977,15.234,32.846,2.918,4.566
20050116,012816,1044275,34.265550,-120.038212,15.225,32.842,2.967,4.639
20050116,012846,1044304,34.265495,-120.038487,15.222,32.840,2.934,4.590
20050116,012917,1044336,34.265553,-120.038800,15.199,32.848,2.902,4.541
20050116,012946,1044364,34.265757,-120.039002,15.183,32.844,2.821,4.422
20050116,013017,1044395,34.266067,-120.039043,15.163,32.842,2.837,4.446
20050116,013047,1044425,34.266493,-120.039043,15.148,32.836,2.789,4.373
20050116,013117,1044456,34.267032,-120.039072,15.146,32.826,2.757,4.327
20050116,013147,1044486,34.267607,-120.038953,15.139,32.826,2.805,4.397
20050116,013217,1044516,34.268188,-120.038687,15.120,32.839,2.821,4.421
20050116,013246,1044545,34.268757,-120.038368,15.098,32.840,2.918,4.564
20050116,013317,1044575,34.269352,-120.037967,15.115,32.824,2.984,4.661
20050116,013348,1044607,34.269853,-120.037897,15.130,32.825,2.984,4.661
20050116,013417,1044636,34.270147,-120.038077,15.107,32.843,2.902,4.540
20050116,013447,1044666,34.270263,-120.038327,15.081,32.842,2.951,4.612
20050116,013517,1044696,34.270257,-120.038515,15.060,32.843,2.984,4.661
20050116,013548,1044727,34.270198,-120.038743,15.043,32.836,2.886,4.517
20050116,013617,1044755,34.270130,-120.039027,15.038,32.828,2.902,4.539
20050116,013647,1044785,34.270060,-120.039307,15.048,32.816,2.821,4.420
20050116,013717,1044816,34.269988,-120.039533,15.067,32.806,2.886,4.516
20050116,013747,1044846,34.269912,-120.039715,15.079,32.807,2.789,4.372
20050116,013817,1044875,34.269828,-120.039885,15.086,32.810,2.789,4.372
20050116,013848,1044907,34.269757,-120.040085,15.082,32.816,2.805,4.396
20050116,013917,1044935,34.269698,-120.040302,15.075,32.818,2.837,4.444
20050116,013947,1044966,34.269637,-120.040530,15.063,32.820,2.741,4.302
20050116,014017,1044996,34.269558,-120.040755,15.056,32.819,2.757,4.326
20050116,014047,1045026,34.269490,-120.040968,15.050,32.816,2.789,4.372
20050116,014117,1045055,34.269428,-120.041172,15.045,32.815,2.725,4.278
20050116,014147,1045085,34.269372,-120.041372,15.040,32.810,2.614,4.115
20050116,014218,1045116,34.269307,-120.041587,15.035,32.816,2.661,4.184
20050116,014247,1045146,34.269210,-120.041810,15.034,32.807,2.630,4.138
20050116,014317,1045176,34.269113,-120.042048,15.032,32.805,2.598,4.092
20050116,014347,1045205,34.269030,-120.042288,15.051,32.792,2.645,4.161
20050116,014417,1045235,34.268950,-120.042533,15.057,32.794,2.566,4.045
20050116,014447,1045265,34.268868,-120.042767,15.066,32.791,2.582,4.068
20050116,014517,1045295,34.268797,-120.042987,15.058,32.802,2.598,4.092
20050116,014547,1045326,34.268735,-120.043205,15.050,32.804,2.519,3.976
20050116,014618,1045356,34.268672,-120.043415,15.043,32.803,2.582,4.068
20050116,014647,1045385,34.268615,-120.043608,15.030,32.805,2.566,4.045
20050116,014717,1045415,34.268540,-120.043768,15.013,32.809,2.598,4.092
20050116,014747,1045445,34.268480,-120.043895,15.003,32.805,2.582,4.068
20050116,014817,1045476,34.268398,-120.044055,15.011,32.790,2.645,4.160
20050116,014848,1045506,34.268350,-120.044438,15.011,32.798,2.598,4.091
20050116,014918,1045536,34.268513,-120.044863,15.001,32.799,2.582,4.068
20050116,014947,1045565,34.268767,-120.045335,14.993,32.800,2.693,4.231
20050116,015017,1045595,34.269027,-120.045913,15.002,32.790,2.725,4.278
20050116,015048,1045626,34.269320,-120.046510,15.013,32.787,2.805,4.396
20050116,015118,1045656,34.269542,-120.046935,15.023,32.785,2.789,4.372
20050116,015148,1045686,34.269743,-120.047402,15.031,32.784,2.821,4.420
20050116,015218,1045717,34.270038,-120.048015,15.071,32.774,2.772,4.348
20050116,015248,1045747,34.270385,-120.048695,15.074,32.788,2.805,4.396
20050116,015318,1045777,34.270722,-120.049460,15.087,32.785,2.805,4.396
20050116,015349,1045808,34.271128,-120.050378,15.117,32.773,2.918,4.563
20050116,015418,1045836,34.271543,-120.051292,15.135,32.781,2.902,4.539
20050116,015448,1045866,34.271995,-120.052400,15.146,32.787,2.870,4.491
20050116,015519,1045897,34.272503,-120.053575,15.159,32.789,2.918,4.563
20050116,015548,1045927,34.273028,-120.054840,15.142,32.802,2.918,4.563
20050116,015618,1045957,34.273598,-120.056175,15.125,32.806,2.934,4.587
20050116,015648,1045986,34.274170,-120.057580,15.118,32.800,2.837,4.443
20050116,015718,1046016,34.274797,-120.059055,15.129,32.791,2.886,4.516
20050116,015748,1046046,34.275412,-120.060590,15.088,32.816,2.902,4.538
20050116,015819,1046077,34.276085,-120.062178,15.053,32.814,2.918,4.563
20050116,015848,1046107,34.276695,-120.063670,15.037,32.805,2.951,4.611
20050116,015919,1046138,34.277357,-120.065260,14.973,32.826,3.099,4.830
20050116,015948,1046166,34.277983,-120.066747,14.929,32.814,3.066,4.781
20050116,020019,1046198,34.278628,-120.068348,14.925,32.788,3.049,4.756
20050116,020049,1046227,34.279255,-120.069835,14.905,32.787,3.017,4.709
20050116,020119,1046257,34.279922,-120.071422,14.856,32.800,3.033,4.732
20050116,020148,1046287,34.280548,-120.072965,14.805,32.795,3.149,4.905
20050116,020219,1046318,34.281188,-120.074503,14.809,32.766,3.166,4.930
20050116,020249,1046348,34.281837,-120.076047,14.806,32.771,3.350,5.204
20050116,020319,1046377,34.282485,-120.077592,14.809,32.764,3.589,5.562
20050116,020349,1046407,34.283120,-120.079143,14.796,32.777,3.727,5.770
20050116,020419,1046437,34.283772,-120.080680,14.769,32.783,3.885,6.008
20050116,020449,1046468,34.284418,-120.082218,14.853,32.741,3.711,5.745
20050116,020519,1046498,34.285052,-120.083768,14.931,32.730,3.572,5.537
20050116,020549,1046528,34.285710,-120.085310,15.020,32.735,3.606,5.587
20050116,020618,1046556,34.286333,-120.086808,15.072,32.760,3.435,5.332
20050116,020649,1046587,34.287007,-120.088415,15.071,32.796,3.418,5.306
20050116,020719,1046617,34.287657,-120.089978,15.005,32.864,3.797,5.876
20050116,020748,1046646,34.288273,-120.091498,14.884,32.919,4.205,6.495
20050116,020819,1046678,34.288920,-120.093135,14.835,32.903,4.116,6.359
20050116,020849,1046708,34.289573,-120.094703,14.858,32.871,3.833,5.929
20050116,020919,1046737,34.290175,-120.096240,14.892,32.867,3.658,5.666
20050116,020949,1046767,34.290847,-120.097862,14.895,32.878,3.745,5.797
20050116,021019,1046797,34.291463,-120.099448,14.902,32.871,3.780,5.850
20050116,021048,1046826,34.292073,-120.100977,14.912,32.871,3.658,5.667
20050116,021119,1046858,34.292720,-120.102602,14.939,32.882,3.469,5.382
20050116,021150,1046889,34.293350,-120.104238,14.898,32.925,3.745,5.796
20050116,021219,1046917,34.293957,-120.105753,14.870,32.935,3.745,5.797
20050116,021249,1046947,34.294577,-120.107327,14.801,32.973,3.867,5.982
20050116,021320,1046978,34.295188,-120.108890,14.763,32.971,3.867,5.982
20050116,021349,1047008,34.295815,-120.110448,14.772,32.945,3.503,5.433
20050116,021419,1047038,34.296428,-120.112020,14.798,32.929,3.469,5.382
20050116,021449,1047067,34.297047,-120.113585,14.846,32.915,3.367,5.230
20050116,021519,1047097,34.297675,-120.115145,14.874,32.921,3.333,5.179
20050116,021549,1047127,34.298298,-120.116708,14.878,32.934,3.367,5.229
20050116,021620,1047158,34.298920,-120.118277,14.891,32.935,3.367,5.229
20050116,021650,1047188,34.299568,-120.119892,14.901,32.935,3.367,5.229
20050116,021720,1047219,34.300185,-120.121465,14.968,32.895,3.232,5.029
20050116,021749,1047247,34.300800,-120.122977,15.048,32.886,3.182,4.954
20050116,021820,1047279,34.301433,-120.124608,15.040,32.934,3.384,5.255
20050116,021850,1047308,34.302060,-120.126188,15.047,32.931,3.384,5.255
20050116,021919,1047338,34.302663,-120.127720,15.023,32.955,3.283,5.104
20050116,021950,1047368,34.303303,-120.129372,14.857,33.049,3.641,5.640
20050116,022020,1047399,34.303915,-120.130963,14.727,33.026,4.062,6.277
20050116,022050,1047429,34.304537,-120.132553,14.729,32.964,3.903,6.035
20050116,022119,1047457,34.305118,-120.134107,14.731,32.952,3.903,6.035
20050116,022149,1047488,34.305738,-120.135710,14.705,32.954,3.991,6.170
20050116,022220,1047518,34.306350,-120.137313,14.675,32.959,3.956,6.116
20050116,022250,1047548,34.306978,-120.138967,14.645,32.966,3.833,5.929
20050116,022320,1047579,34.307595,-120.140563,14.640,32.952,4.026,6.223
20050116,022349,1047607,34.308193,-120.142103,14.648,32.933,4.116,6.360
20050116,022419,1047637,34.308802,-120.143710,14.682,32.906,4.098,6.332
20050116,022450,1047668,34.309450,-120.145360,14.695,32.907,4.098,6.332
20050116,022520,1047698,34.310060,-120.146962,14.703,32.904,4.241,6.551
20050116,022550,1047729,34.310680,-120.148558,14.704,32.906,4.241,6.551
20050116,022620,1047759,34.311310,-120.150143,14.707,32.898,4.134,6.387
20050116,022650,1047789,34.311927,-120.151732,14.707,32.892,4.205,6.496
20050116,022720,1047818,34.312557,-120.153310,14.721,32.876,4.044,6.250
20050116,022751,1047850,34.313188,-120.154887,14.722,32.877,4.044,6.250
20050116,022820,1047878,34.313808,-120.156467,14.727,32.868,3.991,6.170
20050116,022850,1047909,34.314433,-120.158045,14.738,32.849,3.938,6.089
20050116,022920,1047939,34.315072,-120.159620,14.741,32.842,3.903,6.035
20050116,022951,1047969,34.315713,-120.161250,14.737,32.844,3.903,6.035
20050116,023020,1047998,34.316327,-120.162770,14.728,32.848,3.885,6.008
20050116,023050,1048028,34.316965,-120.164340,14.729,32.846,3.885,6.008
20050116,023120,1048058,34.317608,-120.165962,14.729,32.850,3.745,5.797
20050116,023150,1048089,34.318223,-120.167475,14.735,32.848,3.676,5.692
20050116,023220,1048119,34.318862,-120.169030,14.738,32.853,3.711,5.745
20050116,023250,1048148,34.319475,-120.170597,14.741,32.860,3.641,5.640
20050116,023320,1048178,34.320112,-120.172153,14.766,32.842,3.572,5.537
20050116,023351,1048210,34.320767,-120.173768,14.780,32.846,3.486,5.408
20050116,023420,1048239,34.321372,-120.175283,14.770,32.859,3.538,5.485
20050116,023450,1048269,34.322013,-120.176847,14.760,32.861,3.538,5.485
20050116,023521,1048299,34.322670,-120.178455,14.748,32.865,3.589,5.562
20050116,023550,1048328,34.323265,-120.179967,14.741,32.864,3.520,5.460
20050116,023621,1048360,34.323918,-120.181572,14.768,32.838,3.486,5.408
20050116,023651,1048389,34.324552,-120.183120,14.771,32.843,3.572,5.537
20050116,023721,1048419,34.325172,-120.184683,14.776,32.839,3.486,5.407
20050116,023751,1048449,34.325792,-120.186247,14.778,32.839,3.452,5.356
20050116,023821,1048480,34.326437,-120.187807,14.778,32.842,3.623,5.614
20050116,023851,1048510,34.327065,-120.189378,14.783,32.840,3.606,5.587
20050116,023921,1048540,34.327687,-120.190955,14.779,32.843,3.641,5.640
20050116,023951,1048569,34.328322,-120.192525,14.763,32.852,3.589,5.561
20050116,024021,1048599,34.328950,-120.194097,14.766,32.841,3.486,5.407
20050116,024051,1048629,34.329573,-120.195672,14.772,32.834,3.520,5.459
20050116,024121,1048660,34.330210,-120.197240,14.772,32.837,3.469,5.382
20050116,024151,1048690,34.330837,-120.198812,14.768,32.839,3.486,5.407
20050116,024221,1048720,34.331452,-120.200382,14.773,32.838,3.452,5.356
20050116,024251,1048749,34.332068,-120.201957,14.766,32.847,3.589,5.561
20050116,024322,1048781,34.332722,-120.203583,14.748,32.854,3.623,5.614
20050116,024351,1048809,34.333323,-120.205113,14.732,32.855,3.641,5.640